Mt. Pocono, PA

11:53 AM EST on December 11, 2019 (GMT -0500)
Pocono Mountains Municipal

Weather History for KMPO - October, 2019

Change the Weather History Date:

Thursday, October 24, 2019

  Actual Average Record
Temperature  
Mean Temperature 46 °F 46 °F  
Max Temperature 61 °F 55 °F 76 °F (1963)
Min Temperature 32 °F 37 °F 15 °F (1969)
Degree Days  
Heating Degree Days 18 19  
Month to date heating degree days 345 380  
Since 1 July heating degree days 523 648  
Cooling Degree Days 0 0  
Month to date cooling degree days 5 0  
Year to date cooling degree days 348 313  
Moisture  
Dew Point 32 °F    
Average Humidity 58    
Maximum Humidity 92    
Minimum Humidity 31    
Precipitation  
Precipitation 0.00 in 0.12 in 3.25 in (1923)
Month to date precipitation 4.51 3.33  
Year to date precipitation 40.73 39.67  
Sea Level Pressure  
Sea Level Pressure 30.29 in    
Wind  
Wind Speed 6 mph ()    
Max Wind Speed 20 mph    
Max Gust Speed 25 mph    
Visibility 10.0 miles    
Events      
T = Trace of Precipitation, MM = Missing Value Source: Averaged Metar Reports

Daily Weather History Graph

Daily Weather History Graph

Search for Another Location

Airport or City:

Astronomy

Oct. 24, 2019 Rise Set
Actual Time 7:22 AM EDT 6:07 PM EDT
Civil Twilight 6:54 AM EDT 6:35 PM EDT
Nautical Twilight 6:22 AM EDT 7:08 PM EDT
Astronomical Twilight 5:50 AM EDT 7:40 PM EDT
Moon 2:46 AM EDT (10/24) 4:37 PM EDT (10/24)
Length of Visible Light 11h 41m
Length of Day
10h 44m
Waning Crescent, 17% of the Moon is Illuminated
Oct 24
Waning Crescent
Oct 27
New
Nov 4
First Quarter
Nov 12
Full
Nov 19
Last Quarter

Hourly Weather History & Observations

Time (EDT) Temp. Windchill Dew Point Humidity Pressure Visibility Wind Dir Wind Speed Gust Speed Precip Events Conditions
12:53 AM 39.9 °F 35.1 °F 30.9 °F 70% 30.20 in 10.0 mi WNW 6.9 mph - N/A   Clear
1:53 AM 37.9 °F 33.5 °F 30.0 °F 73% 30.22 in 10.0 mi West 5.8 mph - N/A   Clear
2:53 AM 36.0 °F 33.3 °F 30.0 °F 79% 30.23 in 10.0 mi West 3.5 mph - N/A   Clear
3:53 AM 37.9 °F 32.1 °F 30.9 °F 76% 30.23 in 10.0 mi WNW 8.1 mph - N/A   Clear
4:53 AM 39.0 °F 34.8 °F 30.9 °F 73% 30.26 in 10.0 mi WNW 5.8 mph - N/A   Clear
5:53 AM 33.1 °F 28.7 °F 30.9 °F 92% 30.29 in 10.0 mi West 4.6 mph - N/A   Clear
6:53 AM 35.1 °F 31.0 °F 33.1 °F 92% 30.31 in 10.0 mi WNW 4.6 mph - N/A   Clear
7:53 AM 35.1 °F 31.0 °F 32.0 °F 89% 30.32 in 10.0 mi WNW 4.6 mph - N/A   Clear
8:53 AM 45.0 °F 43.5 °F 34.0 °F 65% 30.34 in 10.0 mi West 3.5 mph - N/A   Clear
9:53 AM 50.0 °F - 32.0 °F 50% 30.33 in 10.0 mi WSW 8.1 mph - N/A   Clear
10:53 AM 55.0 °F - 30.9 °F 40% 30.33 in 10.0 mi SW 10.4 mph - N/A   Clear
11:53 AM 59.0 °F - 32.0 °F 36% 30.31 in 10.0 mi SW 9.2 mph 17.3 mph N/A   Clear
12:53 PM 60.1 °F - 30.0 °F 32% 30.30 in 10.0 mi SSW 13.8 mph 24.2 mph N/A   Clear
1:53 PM 60.1 °F - 33.1 °F 36% 30.29 in 10.0 mi SW 11.5 mph - N/A   Clear
2:53 PM 61.0 °F - 30.0 °F 31% 30.28 in 10.0 mi SSW 12.7 mph - N/A   Clear
3:53 PM 60.1 °F - 30.0 °F 32% 30.29 in 10.0 mi SSW 10.4 mph - N/A   Clear
4:53 PM 59.0 °F - 33.1 °F 38% 30.29 in 10.0 mi SSW 9.2 mph - N/A   Clear
5:53 PM 55.9 °F - 30.9 °F 39% 30.29 in 10.0 mi SSW 6.9 mph - N/A   Clear
6:53 PM 53.1 °F - 33.1 °F 47% 30.30 in 10.0 mi SSW 6.9 mph - N/A   Clear
7:53 PM 52.0 °F - 34.0 °F 50% 30.30 in 10.0 mi SSW 8.1 mph - N/A   Clear
8:53 PM 51.1 °F - 35.1 °F 54% 30.30 in 10.0 mi SW 6.9 mph - N/A   Clear
9:53 PM 48.9 °F - 35.1 °F 59% 30.31 in 10.0 mi West 5.8 mph - N/A   Clear
10:53 PM 48.0 °F - 35.1 °F 61% 30.31 in 10.0 mi West 5.8 mph - N/A   Clear
11:53 PM 46.9 °F - 36.0 °F 66% 30.31 in 10.0 mi West 5.8 mph - N/A   Clear